User: anonymous   Login
Location: Unspecified
(0.0000°N, 0.0000°E)
Time: 00:31:04
(UTC+00:00)
Language:

UNIFORM 1 - Orbit

View from above orbital plane
View from above orbital plane
View from above satellite
View from above satellite

Ground track
Ground track

The orbit data is extracted from the following two-line orbital elements,

1 39767U 14029B   18196.83030614  .00000075  00000-0  15567-4 0  9998
2 39767  97.8611 291.6634 0007008  91.5046 268.6975 14.83599287224329
Epoch (UTC): 15 July 2018 19:55:38
Eccentricity: 0.0007008
inclination: 97.8611°
perigee height: 613 km
apogee height: 623 km
right ascension of ascending node: 291.6634°
argument of perigee: 91.5046°
revolutions per day: 14.83599287
mean anomaly at epoch: 268.6975°
orbit number at epoch: 22432

The dashed part of the orbit path shows where the satellite is in the earth's shadow,  

DLR